Regional Weather Roundup
Issued by NWS

Home | Current Version | Previous Version | Graphics & Text | Print | Product List | Glossary On
Versions: 1 2 3 4 5 6 7 8 9 10 11 12 13 14 15 16 17 18 19 20 21 22 23 24 25 26 27 28 29 30 31 32 33 34 35 36 37 38 39 40 41 42 43 44 45 46 47 48 49 50
000
ASUS45 KPSR 292010
RWRAZ

ARIZONA HOURLY REGIONAL WEATHER ROUNDUP
NATIONAL WEATHER SERVICE PHOENIX AZ
100 PM MST MON JUN 29 2015

NOTE: FAIR INDICATES FEW OR NO CLOUDS BELOW 12,000 FEET WITH NO
SIGNIFICANT WEATHER AND/OR OBSTRUCTIONS TO VISIBILITY.

AZZ001>003-036-292100-
NORTHWEST ARIZONA

CITY           SKY/WX    TMP DP  RH WIND       PRES   REMARKS
BULLHEAD CITY  SUNNY    108  50  14 SW9       29.82F HX 104
KINGMAN        SUNNY    100  49  17 SW13      30.05F
$$

AZZ004>008-015-016-018-292100-
NORTH CENTRAL ARIZONA

CITY           SKY/WX    TMP DP  RH WIND       PRES   REMARKS
GRAND CANYON   PTSUNNY   81  54  39 S12       30.31S
WILLIAMS       HVY RAIN  68  57  68 NE32G40   30.39R
PRESCOTT       PTSUNNY   93  44  18 SE7       30.17F
FLAGSTAFF      MOSUNNY   82  46  28 S7        30.33F
PAYSON         MOSUNNY   91  45  19 VRB7G15   30.19F
PAGE           SUNNY     99  44  15 VRB3      30.07F
$$

AZZ009>014-017-292100-
NORTHEAST ARIZONA

CITY           SKY/WX    TMP DP  RH WIND       PRES   REMARKS
WINSLOW        SUNNY     96  43  16 VRB6      30.14F
SAINT JOHNS    SUNNY     91  43  18 VRB5      30.18F
WINDOW ROCK    MOSUNNY   90  42  18 VRB7      30.27F
SHOW LOW       MOSUNNY   84  41  21 N13G18    30.26F
$$

AZZ023-292100-
GREATER PHOENIX AREA

CITY           SKY/WX    TMP DP  RH WIND       PRES   REMARKS
PHOENIX        MOSUNNY  106  60  22 S7        29.85F HX 107
BUCKEYE        SUNNY    102  59  24 S7        29.86F HX 102
GLENDALE       MOSUNNY  104  59  22 S8        29.88F HX 104
LUKE AFB       MOSUNNY  102  61  25 SW8G17    29.85F HX 103
DEER VALLEY    SUNNY    102  57  22 W7        29.88F HX 101
SCOTTSDALE     SUNNY    102  58  23 VRB5      29.90F HX 102
MESA-FALCON    MOSUNNY  102  59  24 SW7       29.88F HX 102
MESA-GATEWAY   MOSUNNY  100  61  27 CALM      29.90F HX 101
CHANDLER       MOSUNNY  102  61  25 NW6       29.88F HX 103
$$

AZZ027-028-292100-
SOUTHWEST MARICOPA COUNTY AND PINAL COUNTY

CITY           SKY/WX    TMP DP  RH WIND       PRES   REMARKS
CASA GRANDE    SUNNY    100  61  27 SW5       29.89F HX 101
GILA BEND      MOSUNNY  104  58  22 W12       29.85F HX 103
$$

AZZ503-504-507>509-292100-
SOUTHEAST ARIZONA

CITY           SKY/WX    TMP DP  RH WIND       PRES   REMARKS
TUCSON         SUNNY    101  55  21 VRB6      29.98F
DAVIS-MONTHAN  SUNNY     99  55  23 NW10      29.96F
RYAN FIELD     SUNNY     99  57  25 NW3       29.97F
NOGALES        PTSUNNY   90  56  31 VRB3      30.07F
SIERRA VISTA   MOSUNNY   92  47  21 VRB5      30.14F
DOUGLAS        MOSUNNY   95  50  21 VRB6      30.07F
SAFFORD        SUNNY     99  51  19 VRB5      29.98F
$$

AZZ020-021-025-026-031-292100-
SOUTHWEST ARIZONA

CITY           SKY/WX    TMP DP  RH WIND       PRES   REMARKS
YUMA           MOSUNNY  105  61  23 SW9       29.83F HX 106
$$

CAZ031-033-041-043-047-048-061-292100-
SOUTHERN CALIFORNIA

CITY           SKY/WX    TMP DP  RH WIND       PRES   REMARKS
DOWNTOWN L.A.  MOSUNNY   90  63  40 CALM      29.87F
L.A. AIRPORT   PTSUNNY   76  65  68 W9        29.90F
SAN DIEGO      PTSUNNY   77  63  61 W6        29.93S
BURBANK        MOSUNNY   93  57  29 SE9       29.90F
ONTARIO        CLOUDY    89  59  36 W9        29.91F
RIVERSIDE      PTSUNNY   92  58  31 W8        29.90F
PALM SPRINGS   MOSUNNY  106  57  20 E10       29.85F HX 105
EL CENTRO NAS  CLOUDY   103  64  28 E7        29.81F HX 106
IMPERIAL       CLOUDY   104  68  31 NE9       29.80F HX 110
BLYTHE         SUNNY    107  60  21 SE12G18   29.81F HX 108
NEEDLES        SUNNY    110  52  14 VRB7      29.83F HX 107
$$

NVZ020-UTZ003-292100-
SOUTHERN NEVADA-UTAH

CITY           SKY/WX    TMP DP  RH WIND       PRES   REMARKS
LAS VEGAS      MOSUNNY  107  45  12 S15G21    29.88F HX 102
SALT LAKE CITY MOSUNNY   98  47  17 CALM      30.04F
$$

NMZ009-TXZ055-292100-
NEW MEXICO-WEST TEXAS

CITY           SKY/WX    TMP DP  RH WIND       PRES   REMARKS
ALBUQUERQUE    MOSUNNY   91  41  17 NW7       30.18F
EL PASO        MOSUNNY   95  47  19 N9        30.07F
$$


........................KEY........................
SKY/WX - SKY CONDITION/WEATHER
TMP    - TEMPERATURE IN FAHRENHEIT
DP     - DEW POINT IN FAHRENHEIT
RH     - RELATIVE HUMIDITY IN PERCENT
WIND   - DIRECTION AND SPEED IN MILES PER HOUR (MPH)
VRB    - VARIABLE WIND DIRECTION
PRES   - MEAN SEA LEVEL PRESSURE IN INCHES OF MERCURY
         F - FALLING PRESSURE   R - RISING PRESSURE
         S - STEADY PRESSURE
VSB    - VISIBILITY IN MILES
HX     - HEAT INDEX IN FAHRENHEIT
WCI    - WIND CHILL INDEX IN FAHRENHEIT
TC     - TEMPERATURE IN CELSIUS WHICH IS ALSO KNOWN AS
         TEMPERATURE IN CENTIGRADE
AFB    - AIR FORCE BASE
         LUKE AFB IS LUKE AIR FORCE BASE
         DAVIS-MONTHAN IS DAVIS-MONTHAN AIR FORCE BASE
NAS    - NAVAL AIR STATION
         EL CENTRO NAS IS EL CENTRO NAVAL AIR STATION
N/A    - NOT AVAILABLE




USA.gov is the U.S. government's official web portal to all federal, state and local government web resources and services.